Lincoln, IL

1:26 PM CDT on September 21, 2019 (GMT -0500)
Lincoln

Weather History for KAAA - August, 2019

Change the Weather History Date:

Monday, August 19, 2019

  Actual Average (WUND) Record (WUND)
Temperature  
Mean Temperature 78 °F -  
Max Temperature 90 °F - - (-1)
Min Temperature 67 °F - - (-1)
Cooling Degree Days 14    
Growing Degree Days 28 (Base 50)    
Moisture  
Dew Point 73 °F    
Average Humidity 84    
Maximum Humidity 100    
Minimum Humidity 57    
Precipitation  
Precipitation 0.00 in - - ()
Sea Level Pressure  
Sea Level Pressure 29.99 in    
Wind  
Wind Speed 1 mph (SSE)    
Max Wind Speed 7 mph    
Max Gust Speed -    
Visibility 7 miles    
Events Fog    
Averages and records for this station are not official NWS values.
T = Trace of Precipitation, MM = Missing Value Source: NWS Daily Summary

Daily Weather History Graph

Daily Weather History Graph

Search for Another Location

Airport or City:

Astronomy

Aug. 19, 2019 Rise Set
Actual Time 6:12 AM CDT 7:48 PM CDT
Civil Twilight 5:43 AM CDT 8:17 PM CDT
Nautical Twilight 5:08 AM CDT 8:52 PM CDT
Astronomical Twilight 4:31 AM CDT 9:29 PM CDT
Moon 10:09 PM CDT (8/19) 9:53 AM CDT (8/19)
Length of Visible Light 14h 34m
Length of Day
13h 36m
Waning Gibbous, 85% of the Moon is Illuminated
Aug 19
Waning Gibbous
Aug 23
Last Quarter
Aug 30
New
Sep 5
First Quarter
Sep 13
Full

Hourly Weather History & Observations

Time (CDT) Temp. Heat Index Dew Point Humidity Pressure Visibility Wind Dir Wind Speed Gust Speed Precip Events Conditions
12:15 AM 71.6 °F - 71.6 °F 100% 29.94 in 5.0 mi Calm Calm - N/A   Clear
12:35 AM 70.7 °F - 70.7 °F 100% 29.94 in 4.0 mi Calm Calm - N/A   Clear
12:55 AM 70.9 °F - 70.9 °F 100% 29.95 in 4.0 mi Calm Calm - N/A   Clear
1:15 AM 71.2 °F - 71.2 °F 100% 29.95 in 4.0 mi Calm Calm - N/A   Clear
1:35 AM 71.8 °F - 71.8 °F 100% 29.95 in 5.0 mi Calm Calm - N/A   Clear
1:55 AM 71.2 °F - 71.2 °F 100% 29.94 in 3.0 mi Calm Calm - N/A   Clear
2:15 AM 71.4 °F - 71.4 °F 100% 29.94 in 4.0 mi Calm Calm - N/A   Clear
2:55 AM 69.1 °F - 69.1 °F 100% 29.95 in 7.0 mi Calm Calm - N/A   Clear
3:15 AM 68.4 °F - 68.4 °F 100% 29.95 in 2.5 mi Calm Calm - N/A   Clear
3:35 AM 68.9 °F - 68.9 °F 100% 29.95 in 5.0 mi Calm Calm - N/A   Scattered Clouds
3:55 AM 67.8 °F - 67.8 °F 100% 29.96 in 0.8 mi Calm Calm - N/A   Overcast
4:15 AM 67.1 °F - 67.1 °F 100% 29.97 in 0.2 mi Calm Calm - N/A Fog Fog
4:35 AM 68.2 °F - 68.2 °F 100% 29.97 in 4.0 mi Calm Calm - N/A   Overcast
4:55 AM 68.0 °F - 68.0 °F 100% 29.97 in 4.0 mi Calm Calm - N/A   Overcast
5:15 AM 68.2 °F - 68.2 °F 100% 29.97 in 1.2 mi Calm Calm - N/A   Overcast
5:35 AM 68.4 °F - 68.4 °F 100% 29.97 in 4.0 mi Calm Calm - N/A   Overcast
5:55 AM 68.0 °F - 68.0 °F 100% 29.98 in 2.0 mi Calm Calm - N/A   Overcast
6:15 AM 68.2 °F - 68.2 °F 100% 29.99 in 0.2 mi Calm Calm - N/A Fog Fog
6:35 AM 68.0 °F - 68.0 °F 100% 30.00 in 0.2 mi Calm Calm - N/A Fog Fog
6:55 AM 68.4 °F - 68.4 °F 100% 30.00 in 0.2 mi Calm Calm - N/A Fog Fog
7:15 AM 69.3 °F - 69.3 °F 100% 30.00 in 0.2 mi Calm Calm - N/A Fog Fog
7:35 AM 70.5 °F - 70.5 °F 100% 30.00 in 0.2 mi Calm Calm - N/A Fog Fog
7:55 AM 71.8 °F - 71.8 °F 100% 30.01 in 2.0 mi Calm Calm - N/A   Overcast
8:15 AM 73.4 °F - 73.4 °F 100% 30.01 in 4.0 mi South 3.5 mph - N/A   Scattered Clouds
8:35 AM 73.0 °F - 73.0 °F 100% 30.01 in 1.5 mi Calm Calm - N/A   Overcast
8:55 AM 74.1 °F - 74.1 °F 100% 30.01 in 7.0 mi Calm Calm - N/A   Mostly Cloudy
9:15 AM 76.5 °F - 74.1 °F 92% 30.02 in 10.0 mi Calm Calm - N/A   Scattered Clouds
9:35 AM 79.7 °F - 74.8 °F 85% 30.02 in 10.0 mi South 3.5 mph - N/A   Clear
9:55 AM 81.3 °F 87.4 °F 74.8 °F 81% 30.02 in 10.0 mi SE 3.5 mph - N/A   Clear
10:15 AM 82.4 °F 88.2 °F 73.4 °F 74% 30.02 in 10.0 mi SSE 5.8 mph - N/A   Clear
10:35 AM 82.8 °F 89.0 °F 73.8 °F 74% 30.02 in 10.0 mi SSE 4.6 mph - N/A   Clear
10:55 AM 84.4 °F 91.3 °F 73.6 °F 70% 30.03 in 10.0 mi SE 5.8 mph - N/A   Clear
11:15 AM 84.6 °F 91.0 °F 73.0 °F 68% 30.02 in 10.0 mi SE 5.8 mph - N/A   Clear
11:35 AM 85.1 °F 92.6 °F 73.8 °F 69% 30.02 in 10.0 mi South 5.8 mph - N/A   Clear
11:55 AM 85.3 °F 92.6 °F 73.6 °F 68% 30.02 in 10.0 mi SSE 5.8 mph - N/A   Clear
12:15 PM 86.0 °F 93.8 °F 73.8 °F 67% 30.02 in 10.0 mi SSE 3.5 mph - N/A   Clear
12:35 PM 86.5 °F 94.2 °F 73.6 °F 65% 30.02 in 10.0 mi SSE 4.6 mph - N/A   Clear
12:55 PM 87.8 °F 96.6 °F 74.5 °F 64% 30.02 in 10.0 mi SE 5.8 mph - N/A   Clear
1:15 PM 88.0 °F 97.5 °F 74.7 °F 65% 30.02 in 10.0 mi SSE 3.5 mph - N/A   Clear
1:55 PM 89.1 °F 98.0 °F 73.9 °F 61% 30.02 in 10.0 mi SSE 3.5 mph - N/A   Scattered Clouds
2:15 PM 89.1 °F 99.1 °F 75.0 °F 63% 30.01 in 10.0 mi SSE 5.8 mph - N/A   Mostly Cloudy
2:35 PM 89.2 °F 98.4 °F 74.1 °F 61% 30.00 in 10.0 mi SE 4.6 mph - N/A   Mostly Cloudy
2:55 PM 89.6 °F 98.2 °F 73.8 °F 59% 30.00 in 10.0 mi SSW 3.5 mph - N/A   Mostly Cloudy
3:15 PM 89.8 °F 97.5 °F 72.9 °F 57% 30.00 in 10.0 mi South 5.8 mph - N/A   Mostly Cloudy
3:35 PM 90.1 °F 99.4 °F 74.3 °F 59% 29.99 in 10.0 mi South 6.9 mph - N/A   Mostly Cloudy
3:55 PM 90.0 °F 99.6 °F 74.3 °F 60% 29.99 in 10.0 mi SSE 4.6 mph - N/A   Mostly Cloudy
4:15 PM 88.5 °F 97.8 °F 74.7 °F 63% 29.98 in 10.0 mi SSE 5.8 mph - N/A   Mostly Cloudy
4:35 PM 89.2 °F 100.7 °F 75.9 °F 65% 29.98 in 10.0 mi SSE 4.6 mph - N/A   Mostly Cloudy
4:55 PM 89.4 °F 99.4 °F 74.7 °F 62% 29.98 in 10.0 mi SSE 6.9 mph - N/A   Mostly Cloudy
5:15 PM 89.4 °F 99.4 °F 75.0 °F 62% 29.98 in 10.0 mi South 4.6 mph - N/A   Scattered Clouds
5:35 PM 89.1 °F 99.1 °F 75.0 °F 63% 29.98 in 10.0 mi SSE 5.8 mph - N/A   Clear
5:55 PM 88.7 °F 99.8 °F 75.9 °F 66% 29.98 in 10.0 mi SSE 4.6 mph - N/A   Scattered Clouds
6:15 PM 88.2 °F 99.5 °F 76.3 °F 68% 29.97 in 10.0 mi South 5.8 mph - N/A   Scattered Clouds
6:35 PM 87.8 °F 98.6 °F 75.9 °F 68% 29.97 in 10.0 mi SSE 3.5 mph - N/A   Clear
6:55 PM 86.7 °F 99.3 °F 77.9 °F 75% 29.97 in 10.0 mi Calm Calm - N/A   Clear
7:15 PM 85.3 °F 96.7 °F 77.7 °F 78% 29.97 in 10.0 mi Calm Calm - N/A   Clear
7:35 PM 83.8 °F 93.9 °F 77.4 °F 81% 29.98 in 10.0 mi SE 3.5 mph - N/A   Clear
7:55 PM 81.7 °F 89.7 °F 77.5 °F 87% 29.99 in 10.0 mi SSE 3.5 mph - N/A   Clear
8:15 PM 81.0 °F 88.1 °F 77.4 °F 89% 30.00 in 10.0 mi South 3.5 mph - N/A   Clear
8:55 PM 80.2 °F 86.3 °F 77.0 °F 90% 30.00 in 10.0 mi Calm Calm - N/A   Clear
9:15 PM 80.1 °F 85.7 °F 76.5 °F 89% 30.00 in 10.0 mi Calm Calm - N/A   Clear
9:35 PM 79.7 °F - 76.3 °F 89% 30.00 in 10.0 mi Calm Calm - N/A   Clear
9:55 PM 77.9 °F - 75.7 °F 93% 30.00 in 10.0 mi SSE 3.5 mph - N/A   Clear
10:15 PM 78.3 °F - 76.1 °F 93% 30.00 in 10.0 mi Calm Calm - N/A   Clear
10:35 PM 76.5 °F - 75.2 °F 96% 30.00 in 10.0 mi Calm Calm - N/A   Clear
10:55 PM 77.4 °F - 75.7 °F 95% 30.00 in 10.0 mi Calm Calm - N/A   Clear
11:15 PM 77.4 °F - 75.9 °F 95% 30.01 in 10.0 mi Calm Calm - N/A   Clear
11:35 PM 75.6 °F - 74.8 °F 98% 30.02 in 10.0 mi Calm Calm - N/A   Clear
11:55 PM 75.7 °F - 75.2 °F 98% 30.02 in 10.0 mi South 3.5 mph - N/A   Clear